Regional Weather Roundup
Issued by NWS

Home | Current Version | Previous Version | Graphics & Text | Print | Product List | Glossary On
Versions: 1 2 3 4 5 6 7 8 9 10 11 12 13 14 15 16 17 18 19 20 21 22 23 24 25 26 27 28 29 30 31 32 33 34 35 36 37 38 39 40 41 42 43 44 45 46 47 48 49 50
000
ASUS43 KMKX 202200
RWRWI

WISCONSIN REGIONAL WEATHER ROUNDUP
NATIONAL WEATHER SERVICE MILWAUKEE/SULLIVAN WI
500 PM CDT MON OCT 20 2014

NOTE: "FAIR" INDICATES FEW OR NO CLOUDS BELOW 12,000 FEET WITH NO
SIGNIFICANT WEATHER AND/OR OBSTRUCTIONS TO VISIBILITY.

WIZ001-002-006>008-014>016-023>028-202300-
NORTHWEST WISCONSIN

CITY           SKY/WX    TMP DP  RH WIND       PRES   REMARKS
SUPERIOR ARPT  CLOUDY    50  41  70 N9        30.03R
ASHLAND        CLOUDY    52  39  61 N9        30.02R
HAYWARD        CLOUDY    52  40  63 VRB3      30.01R
SIREN          PTSUNNY   55  39  56 NE9       30.01R
CUMBERLAND     CLOUDY    52  37  58 N10       30.00R
RICE LAKE      CLOUDY    53  39  60 N8        30.01R
CHETEK         CLOUDY    53  40  62 N13G18    30.00R
LADYSMITH      CLOUDY    53  39  59 NW9       29.99S
EAU CLAIRE     NOT AVBL
MENOMONIE      MOSUNNY   58  40  49 N13       29.98R
NEW RICHMOND   SUNNY     59  39  46 NW6       29.99S
OSCEOLA        SUNNY     59  42  52 N7        30.02R
$$

WIZ003>005-009-010-017-018-202300-
NORTH CENTRAL WISCONSIN

CITY           SKY/WX    TMP DP  RH WIND       PRES   REMARKS
MANITOWISH WTR DRIZZLE   45  43  93 N5        29.97R
ARBOR VITAE    CLOUDY    48  43  82 N9        29.96S
WOODRUFF       CLOUDY    48  43  82 N9        29.96S
RHINELANDER    LGT RAIN  44  42  93 NW6       29.97R FOG
EAGLE RIVER    LGT RAIN  44  41  89 N9        29.96R
LAND O LAKES   CLOUDY    45  42  89 N9        29.96S
PHILLIPS       CLOUDY    48  39  71 N8        29.97R
TOMAHAWK       CLOUDY    47  40  75 NW8       29.97R
MEDFORD        CLOUDY    48  40  72 N6        29.97R
MERRILL        CLOUDY    49  40  70 N9        29.96R
$$

WIZ029-030-035-036-043>047-202300-
CENTRAL WISCONSIN

CITY           SKY/WX    TMP DP  RH WIND       PRES   REMARKS
WAUSAU         CLOUDY    50  40  68 NW8       29.95R
MOSINEE        CLOUDY    48  43  81 N12G20    29.97R
MARSHFIELD     CLOUDY    53  39  59 N10       29.97R
STEVENS POINT  CLOUDY    49  39  68 NW8       29.96R
WAUPACA        CLOUDY    54  44  71 NW6       29.94R
WAUTOMA        NOT AVBL
WISC RAPIDS    CLOUDY    53  40  61 N14       29.98R
CAMP DOUGLAS   NOT AVBL
$$

WIZ011>013-019>022-031-037>040-048>050-202300-
NORTHEAST WISCONSIN

CITY           SKY/WX    TMP DP  RH WIND       PRES   REMARKS
ANTIGO         CLOUDY    48  40  75 NW10G22   29.94R
SHAWANO        CLOUDY    53  44  70 NW5       29.93R
OCONTO         CLOUDY    49  45  85 NW6       29.92R
STURGEON BAY   CLOUDY    50  43  76 N9        29.92R
GREEN BAY      CLOUDY    52  44  74 NW12      29.94R
MANITOWOC      NOT AVBL
APPLETON       CLOUDY    52  43  71 NW12      29.94R
CLINTONVILLE   CLOUDY    52  41  66 NW8       29.93R
OSHKOSH        CLOUDY    52  44  74 NW8       29.93R
$$

WIZ032>034-041-042-053>061-202300-
SOUTHWEST WISCONSIN

CITY           SKY/WX    TMP DP  RH WIND       PRES   REMARKS
LA CROSSE      MOSUNNY   63  42  46 N7        29.95R
SPARTA         MOSUNNY   58  38  46 N9        29.96R
VIROQUA        SUNNY     60  41  49 NW9G16    29.95R
BOSCOBEL       PTSUNNY   66  42  41 N6        29.95R
PRAIRIE DU CHI MOSUNNY   65  40  38 NW13      29.93R
PLATTEVILLE    SUNNY     63  42  44 N12       29.94R
$$

WIZ056-057-062-063-064-067-068-202300-
SOUTH CENTRAL WISCONSIN

CITY           SKY/WX    TMP DP  RH WIND       PRES   REMARKS
REEDSBURG      CLOUDY    57  40  54 N9G16     29.94R
BARABOO/DELLS  CLOUDY    56  37  47 N8        29.94R
LONE ROCK      NOT AVBL
MINERAL POINT  MOSUNNY   63  36  36 N13       29.94R
MADISON        CLOUDY    56  41  57 N9        29.94R
MIDDLETON      CLOUDY    58  39  49 N10       29.94R
WATERTOWN      CLOUDY    53  42  66 N12       29.93R
MONROE         CLOUDY    59  43  55 N10       29.92R
JANESVILLE     PTSUNNY   59  39  47 N12G18    29.93R
$$

WIZ051-052-058>065-066-070>072-202300-
SOUTHEAST WISCONSIN

CITY           SKY/WX    TMP DP  RH WIND       PRES   REMARKS
MILWAUKEE      CLOUDY    54  41  61 NW9       29.92R
WAUKESHA       NOT AVBL
MILWAUKEE/TIMM CLOUDY    54  41  62 N12       29.92R
RACINE         CLOUDY    54  43  66 NW9       29.93R
BURLINGTON     CLOUDY    54  42  62 N9        29.92R
KENOSHA        CLOUDY    55  45  68 NW12G18   29.92R
FOND DU LAC    CLOUDY    53  42  66 N12       29.93R
SHEBOYGAN      CLOUDY    53  41  63 N8        29.92R
WEST BEND      CLOUDY    52  41  66 NW10      29.91S
JUNEAU         CLOUDY    52  41  67 NW6       29.94S
$$

LSZ147-162-202300-
LAKE SUPERIOR

STATION/POSITION TIME  TEMP    WIND        PRES    WAVE
                       AIR SEA DIR/SP/G            HT/PER
                 (UTC) (F)     (DEG/KT/KT) (MB)    (FT/S)
W MID LAKE BUOY  2050   47 47  350/  4/  4 1015.6R   1
DEVILS ISLAND    2100   49     340/ 10/ 11 1016.3R
PORT WING        2100   50     340/  6/  9 1016.3R
SAXON HARBOR     2100   50      10/  9/ 11 1015.6R
$$

LMZ867-665-643>646-202300-
LAKE MICHIGAN

STATION/POSITION TIME  TEMP    WIND        PRES    WAVE
                       AIR SEA DIR/SP/G            HT/PER
                 (UTC) (F)     (DEG/KT/KT) (MB)    (FT/S)
CHAMBERS ISLAND  2100   51     310/ 15/ 19 1012.5R
N MID LAKE BUOY  2050   48 51  340/ 19/ 23 1011.5R   3/ 4
NORTHPORT PIER   2100   50     340/ 16/ 18 1012.2R
KEWAUNEE LAKESHO 2100   52     340/  6/ 10 1011.5R
SHEBOYGAN LAKESH 2100   53 51  320/ 10/ 12 1012.9R
PORT WASHINGTON  2100   55     330/  6/ 13 1013.2R
ATWATER BUOY     2100   54     330/ 12/ 14 1013.6R
MILWAUKEE LAKESH 2100   55     330/  9/ 15   N/A
S MID LAKE BUOY  2050   53 55  340/ 17/ 21 1011.6R   3/ 4
KENOSHA   LAKESH 2100   53      20/ 14/ 17 1012.2R
$$

TC  - TEMPERATURE IN CELSIUS
VSB - VISIBILITY IN STATUTE MILES
WCI - WIND CHILL INDEX
HX  - HEAT INDEX



USA.gov is the U.S. government's official web portal to all federal, state and local government web resources and services.